EW8805 Weather Reports


Display with metric or nautical units.
time (UTC)temp
F
wind
direction
speed
MPH
gust
MPH
rain 1hr
in
rain 24hr
in
rain mn
in
humidity
%
barometer
mb
20260507114021 65 103 8.0 12.0 0.00 0.00 0.00 46 1010.0
20260507113522 65 58 6.0 12.0 0.00 0.00 0.00 47 1010.0
20260507113030 64 97 7.0 12.0 0.00 0.00 0.00 49 1010.1
20260507112546 65 77 7.0 12.0 0.00 0.00 0.00 48 1010.2
20260507112023 66 103 8.0 11.0 0.00 0.00 0.00 47 1010.2
20260507111522 66 304 0.0 10.0 0.00 0.00 0.00 46 1010.1
20260507111027 66 297 1.0 4.0 0.00 0.00 0.00 45 1010.2
20260507110534 66 111 0.0 5.0 0.00 0.00 0.00 44 1010.1
20260507110056 66 224 3.0 6.0 0.00 0.00 0.00 44 1010.1
20260507105539 67 138 4.0 7.0 0.00 0.00 0.00 42 1010.1
20260507105040 67 158 3.0 7.0 0.00 0.00 0.00 43 1010.1
20260507104536 67 149 1.0 6.0 0.00 0.00 0.00 43 1010.1
20260507104034 66 243 2.0 9.0 0.00 0.00 0.00 43 1010.1
20260507103543 66 235 0.0 9.0 0.00 0.00 0.00 45 1010.2
20260507103028 66 159 1.0 9.0 0.00 0.00 0.00 43 1010.2
20260507102529 66 211 6.0 8.0 0.00 0.00 0.00 45 1010.2
20260507102043 66 262 3.0 9.0 0.00 0.00 0.00 47 1010.3
20260507101523 66 218 1.0 10.0 0.00 0.00 0.00 45 1010.3
20260507101023 65 281 6.0 10.0 0.00 0.00 0.00 49 1010.4
20260507100538 65 256 6.0 9.0 0.00 0.00 0.00 50 1010.5
20260507100127 64 262 3.0 9.0 0.00 0.00 0.00 52 1010.5
20260507095533 64 191 0.0 9.0 0.00 0.00 0.00 52 1010.5
20260507095035 63 255 6.0 9.0 0.00 0.00 0.00 54 1010.6
20260507094540 63 264 5.0 9.0 0.00 0.00 0.00 53 1010.6
20260507094022 63 264 4.0 9.0 0.00 0.00 0.00 54 1010.5
20260507093525 63 267 8.0 9.0 0.00 0.00 0.00 56 1010.4
20260507093044 62 259 2.0 9.0 0.00 0.00 0.00 57 1010.4
20260507092533 62 295 7.0 9.0 0.00 0.00 0.00 57 1010.4
20260507092029 63 280 5.0 9.0 0.00 0.00 0.00 55 1010.5
20260507091538 62 276 4.0 10.0 0.00 0.00 0.00 55 1010.4
20260507091040 62 262 8.0 13.0 0.00 0.00 0.00 54 1010.5
20260507090540 62 253 8.0 13.0 0.00 0.00 0.00 54 1010.5
20260507090101 62 250 3.0 9.0 0.00 0.00 0.00 55 1010.6
20260507085538 62 242 6.0 9.0 0.00 0.00 0.00 58 1010.5
20260507085025 61 239 5.0 10.0 0.00 0.00 0.00 61 1010.5
20260507084537 61 246 6.0 10.0 0.00 0.00 0.00 60 1010.5
20260507084042 61 245 6.0 8.0 0.00 0.00 0.00 61 1010.6
20260507083530 61 264 5.0 8.0 0.00 0.00 0.00 61 1010.6
20260507083042 61 288 2.0 6.0 0.00 0.00 0.00 61 1010.6
20260507082523 60 208 2.0 6.0 0.00 0.00 0.00 62 1010.6
20260507082033 59 210 0.0 3.0 0.00 0.00 0.00 65 1010.5
20260507081530 58 207 0.0 3.0 0.00 0.00 0.00 66 1010.6
20260507081027 57 248 1.0 3.0 0.00 0.00 0.00 64 1010.6
20260507080529 57 125 0.0 0.0 0.00 0.00 0.00 66 1010.4
20260507080058 56 122 0.0 0.0 0.00 0.00 0.00 68 1010.4
20260507075534 55 212 0.0 0.0 0.00 0.00 0.00 72 1010.5
20260507075019 55 221 0.0 3.0 0.00 0.00 0.00 73 1010.5
20260507074524 54 98 0.0 3.0 0.00 0.00 0.00 75 1010.3
20260507074028 54 90 0.0 4.0 0.00 0.00 0.00 76 1010.3
20260507073530 54 89 3.0 5.0 0.00 0.00 0.00 75 1010.3
20260507073044 54 70 2.0 5.0 0.00 0.00 0.00 78 1010.3
20260507072532 53 119 0.0 4.0 0.00 0.00 0.00 79 1010.1
20260507072028 53 75 2.0 4.0 0.00 0.00 0.00 80 1010.1
20260507071543 52 82 0.0 2.0 0.00 0.00 0.00 80 1010.0
20260507071030 52 102 0.0 1.0 0.00 0.00 0.00 81 1010.0
20260507070533 52 354 0.0 2.0 0.00 0.00 0.00 82 1010.0
20260507070107 52 56 0.0 2.0 0.00 0.00 0.00 81 1010.0
20260507065522 52 9 0.0 3.0 0.00 0.00 0.00 82 1009.9
20260507065034 52 351 0.0 3.0 0.00 0.00 0.00 82 1009.9
20260507064524 52 30 0.0 1.0 0.00 0.00 0.00 82 1009.8
20260507064053 51 39 0.0 1.0 0.00 0.00 0.00 84 1009.8
20260507063529 51 54 0.0 4.0 0.00 0.00 0.00 84 1009.8
20260507063020 51 53 0.0 4.0 0.00 0.00 0.00 84 1009.7
20260507062523 51 58 2.0 4.0 0.00 0.00 0.00 84 1009.7
20260507062022 51 110 0.0 2.0 0.00 0.00 0.00 83 1009.7
20260507061530 51 68 0.0 2.0 0.00 0.00 0.00 82 1009.7
20260507061028 51 94 0.0 1.0 0.00 0.00 0.00 83 1009.6
20260507060538 50 132 0.0 2.0 0.00 0.00 0.00 84 1009.5
20260507060128 50 100 0.0 2.0 0.00 0.00 0.00 85 1009.5
20260507055530 50 96 0.0 2.0 0.00 0.00 0.00 85 1009.5
20260507055056 0 86 0.0 0.0 0.00 0.00 0.00 1009.4
20260507054538 0 0.0 0.0 0.00 0.00 0.00 1009.4
20260507054043 0 0.0 0.0 0.00 0.00 0.00 1009.4
20260507053520 0 0.0 0.0 0.00 0.00 0.00 1009.4
20260507053034 0 0.0 0.0 0.00 0.00 0.00 1009.3
20260507052524 0 0.0 0.0 0.00 0.00 0.00 1009.2
20260507052021 0 0.0 0.0 0.00 0.00 0.00 1009.2
20260507051603 0 0.0 0.0 0.00 0.00 0.00 1009.1
20260507051040 0 0.0 0.0 0.00 0.00 0.00 1009.2
20260507050542 0 0.0 0.0 0.00 0.00 0.00 1009.0
20260507050044 0 0.0 0.0 0.00 0.00 0.00 1009.0
20260507045521 0 0.0 0.0 0.00 0.00 0.00 1009.0
20260507045024 0 0.0 0.0 0.00 0.00 0.00 1008.9
20260507044542 0 0.0 0.0 0.00 0.00 0.00 1009.0
20260507044041 51 68 4.0 4.0 0.00 0.00 0.00 76 1008.9
20260507043527 51 68 4.0 4.0 0.00 0.00 0.00 76 1008.9
20260507043019 51 89 2.0 4.0 0.00 0.00 0.00 76 1008.9
20260507042535 51 71 0.0 1.0 0.00 0.00 0.00 75 1008.9
20260507042041 50 82 0.0 3.0 0.00 0.00 0.00 74 1008.8
20260507041528 50 103 1.0 3.0 0.00 0.00 0.00 74 1008.8
20260507041053 51 100 1.0 4.0 0.00 0.00 0.00 74 1008.8
20260507040533 51 96 1.0 4.0 0.00 0.00 0.00 75 1008.9
20260507040050 51 92 1.0 2.0 0.00 0.00 0.00 75 1008.9
20260507035600 51 72 0.0 3.0 0.00 0.00 0.00 74 1008.9
20260507035035 51 77 1.0 3.0 0.00 0.00 0.00 74 1008.9
20260507034539 51 72 0.0 3.0 0.00 0.00 0.00 74 1008.9
20260507034046 51 25 0.0 0.0 0.00 0.00 0.00 73 1009.0
20260507033520 51 25 0.0 0.0 0.00 0.00 0.00 73 1009.0
20260507033040 51 25 0.0 4.0 0.00 0.00 0.00 73 1009.0
20260507032530 51 32 1.0 5.0 0.00 0.00 0.00 73 1009.0
20260507032027 51 46 3.0 6.0 0.00 0.00 0.00 72 1009.0
20260507031533 51 41 3.0 6.0 0.00 0.00 0.00 71 1009.0
20260507031032 51 46 3.0 5.0 0.00 0.00 0.00 70 1009.0
20260507030549 51 39 0.0 3.0 0.00 0.00 0.00 69 1009.1
20260507030127 51 47 0.0 4.0 0.00 0.00 0.00 67 1009.1
20260507025540 52 33 2.0 6.0 0.00 0.00 0.00 65 1009.1
20260507025040 53 39 5.0 6.0 0.00 0.00 0.00 62 1009.2
20260507024521 54 52 4.0 5.0 0.00 0.00 0.00 61 1009.1
20260507024030 54 65 1.0 3.0 0.00 0.00 0.00 60 1009.3
20260507023545 55 49 2.0 3.0 0.00 0.00 0.00 59 1009.4
20260507023058 54 146 0.0 0.0 0.00 0.00 0.00 58 1009.4
20260507022528 54 145 0.0 1.0 0.00 0.00 0.00 58 1009.4
20260507022053 54 120 0.0 1.0 0.00 0.00 0.00 60 1009.3
20260507021522 53 146 0.0 1.0 0.00 0.00 0.00 58 1009.3
20260507021100 53 167 0.0 0.0 0.00 0.00 0.00 58 1009.2
20260507020537 53 158 0.0 4.0 0.00 0.00 0.00 59 1009.3
20260507020126 53 172 1.0 4.0 0.00 0.00 0.00 60 1009.3
20260507015544 52 219 1.0 4.0 0.00 0.00 0.00 61 1009.3
20260507015057 52 222 0.0 1.0 0.00 0.00 0.00 62 1009.2
20260507014541 51 224 0.0 4.0 0.00 0.00 0.00 62 1009.2
20260507014042 51 245 1.0 4.0 0.00 0.00 0.00 63 1009.2
20260507013548 51 246 2.0 3.0 0.00 0.00 0.00 63 1009.1
20260507013030 51 242 0.0 2.0 0.00 0.00 0.00 62 1009.1
20260507012542 51 248 0.0 2.0 0.00 0.00 0.00 62 1009.1
20260507012030 51 248 0.0 2.0 0.00 0.00 0.00 62 1009.1
20260507011537 51 248 1.0 2.0 0.00 0.00 0.00 62 1009.1
20260507010531 51 240 0.0 1.0 0.00 0.00 0.00 62 1009.2
20260507010049 51 241 0.0 3.0 0.00 0.00 0.00 63 1009.2
20260507005539 51 257 1.0 3.0 0.00 0.00 0.00 62 1009.2
20260507005035 51 260 2.0 2.0 0.00 0.00 0.00 61 1009.2
20260507004530 51 260 0.0 2.0 0.00 0.00 0.00 60 1009.3
20260507004054 51 260 0.0 2.0 0.00 0.00 0.00 60 1009.3
20260507003546 52 276 1.0 2.0 0.00 0.00 0.00 59 1009.2
20260507003034 52 257 0.0 0.0 0.00 0.00 0.00 59 1009.3
20260507002539 52 278 0.0 0.0 0.00 0.00 0.00 58 1009.5
20260507002041 52 278 0.0 0.0 0.00 0.00 0.00 57 1009.4
20260507001528 53 278 0.0 1.0 0.00 0.00 0.00 56 1009.5
20260507001036 53 278 0.0 1.0 0.00 0.00 0.00 55 1009.5
20260507000539 53 278 0.0 1.0 0.00 0.00 0.00 54 1009.5
20260507000051 54 278 0.0 1.0 0.00 0.00 0.00 54 1009.5
20260506235543 54 278 0.0 0.0 0.00 0.00 0.00 53 1009.4
20260506235041 54 41 0.0 0.0 0.00 0.00 0.00 54 1009.6
20260506234542 54 41 0.0 0.0 0.00 0.00 0.00 53 1009.6
20260506234023 55 41 0.0 0.0 0.00 0.00 0.00 53 1009.6
20260506233527 55 41 0.0 2.0 0.00 0.00 0.00 52 1009.6
20260506233037 55 41 0.0 2.0 0.00 0.00 0.00 52 1009.6
20260506232559 55 56 0.0 1.0 0.00 0.00 0.00 52 1009.5
20260506232042 55 72 0.0 1.0 0.00 0.00 0.00 52 1009.5
20260506231546 55 72 0.0 3.0 0.00 0.00 0.00 52 1009.5
20260506231030 55 61 0.0 3.0 0.00 0.00 0.00 52 1009.6
20260506230527 55 78 0.0 1.0 0.00 0.00 0.00 52 1009.5
20260506230045 55 72 0.0 1.0 0.00 0.00 0.00 52 1009.5
20260506225537 55 72 0.0 1.0 0.00 0.00 0.00 53 1009.5
20260506225036 55 71 0.0 1.0 0.00 0.00 0.00 54 1009.5
20260506224522 55 76 0.0 8.0 0.00 0.00 0.00 55 1009.5
20260506224046 55 84 0.0 8.0 0.00 0.00 0.00 55 1009.6
20260506223543 57 64 0.0 4.0 0.00 0.00 0.00 51 1009.6
20260506223047 57 263 0.0 0.0 0.00 0.00 0.00 50 1009.5
20260506222526 57 263 0.0 0.0 0.00 0.00 0.00 50 1009.5
20260506222034 57 263 0.0 1.0 0.00 0.00 0.00 50 1009.5
20260506221520 57 263 0.0 2.0 0.00 0.00 0.00 51 1009.4
20260506221039 57 263 0.0 2.0 0.00 0.00 0.00 52 1009.5
20260506220533 56 251 0.0 1.0 0.00 0.00 0.00 55 1009.5
20260506215527 57 280 1.0 2.0 0.00 0.00 0.00 57 1009.6
20260506215040 57 278 0.0 1.0 0.00 0.00 0.00 54 1009.6
20260506214546 57 278 0.0 1.0 0.00 0.00 0.00 53 1009.6
20260506214032 57 278 0.0 1.0 0.00 0.00 0.00 51 1009.6
20260506213526 58 278 1.0 1.0 0.00 0.00 0.00 49 1009.6
20260506213028 58 278 0.0 1.0 0.00 0.00 0.00 47 1009.7
20260506212543 59 278 0.0 2.0 0.00 0.00 0.00 47 1009.7
20260506212021 59 264 1.0 2.0 0.00 0.00 0.00 46 1009.7
20260506211521 59 254 1.0 3.0 0.00 0.00 0.00 46 1009.6
20260506211029 59 246 2.0 3.0 0.00 0.00 0.00 47 1009.5
20260506210528 59 251 1.0 2.0 0.00 0.00 0.00 47 1009.5
20260506210046 60 245 0.0 2.0 0.00 0.00 0.00 46 1009.4
20260506205535 60 250 1.0 2.0 0.00 0.00 0.00 46 1009.4
20260506205033 60 247 0.0 0.0 0.00 0.00 0.00 45 1009.4
20260506204541 60 276 0.0 0.0 0.00 0.00 0.00 44 1009.3
20260506204021 60 276 0.0 0.0 0.00 0.00 0.00 44 1009.3
20260506203554 60 276 0.0 0.0 0.00 0.00 0.00 44 1009.2
20260506203022 60 276 0.0 0.0 0.00 0.00 0.00 44 1009.2
20260506202558 60 276 0.0 0.0 0.00 0.00 0.00 43 1009.2
20260506202028 61 276 0.0 1.0 0.00 0.00 0.00 42 1009.2
20260506201546 61 276 0.0 1.0 0.00 0.00 0.00 42 1009.1
20260506201043 61 276 0.0 1.0 0.00 0.00 0.00 41 1009.1
20260506200604 61 276 0.0 1.0 0.00 0.00 0.00 41 1009.0
20260506200106 62 276 0.0 2.0 0.00 0.00 0.00 40 1009.0
20260506195528 62 276 0.0 2.0 0.00 0.00 0.00 40 1009.0
20260506195023 63 282 1.0 5.0 0.00 0.00 0.00 38 1009.0
20260506194525 64 282 3.0 5.0 0.00 0.00 0.00 37 1008.9
20260506194035 64 259 3.0 4.0 0.00 0.00 0.00 36 1008.9
20260506193522 64 277 4.0 4.0 0.00 0.00 0.00 36 1008.8
20260506193023 65 276 3.0 4.0 0.00 0.00 0.00 35 1008.8
20260506192539 65 286 3.0 4.0 0.00 0.00 0.00 35 1008.8
20260506192040 66 276 2.0 3.0 0.00 0.00 0.00 34 1008.8
20260506191530 66 281 1.0 6.0 0.00 0.00 0.00 34 1008.8
20260506191043 67 276 2.0 6.0 0.00 0.00 0.00 33 1008.8
20260506190544 67 250 3.0 4.0 0.00 0.00 0.00 32 1008.7
20260506190046 67 252 1.0 3.0 0.00 0.00 0.00 30 1008.7
20260506185528 68 271 0.0 3.0 0.00 0.00 0.00 32 1008.7
20260506185036 68 284 2.0 3.0 0.00 0.00 0.00 31 1008.7
20260506184525 69 284 0.0 3.0 0.00 0.00 0.00 31 1008.7
20260506184025 69 309 2.0 4.0 0.00 0.00 0.00 29 1008.7
20260506183539 69 306 1.0 4.0 0.00 0.00 0.00 30 1008.7
20260506183025 70 290 2.0 4.0 0.00 0.00 0.00 29 1008.7
20260506182528 70 314 2.0 4.0 0.00 0.00 0.00 28 1008.7
20260506182034 71 319 0.0 0.0 0.00 0.00 0.00 27 1008.7
20260506181537 70 321 0.0 2.0 0.00 0.00 0.00 28 1008.7
20260506181044 70 354 0.0 2.0 0.00 0.00 0.00 28 1008.7
20260506180546 70 16 0.0 1.0 0.00 0.00 0.00 28 1008.7
20260506180108 71 46 0.0 2.0 0.00 0.00 0.00 27 1008.8
20260506175535 71 278 0.0 2.0 0.00 0.00 0.00 27 1008.7
20260506175046 71 303 0.0 3.0 0.00 0.00 0.00 27 1008.8
20260506174525 71 352 0.0 3.0 0.00 0.00 0.00 27 1008.9
20260506174041 71 293 0.0 3.0 0.00 0.00 0.00 27 1008.9
20260506173532 71 301 0.0 3.0 0.00 0.00 0.00 27 1008.9
20260506173022 70 297 0.0 6.0 0.00 0.00 0.00 27 1008.9
20260506172539 70 309 4.0 6.0 0.00 0.00 0.00 27 1009.0
20260506172024 71 314 2.0 4.0 0.00 0.00 0.00 27 1009.0
20260506171554 70 255 0.0 5.0 0.00 0.00 0.00 28 1008.9
20260506171047 69 252 3.0 6.0 0.00 0.00 0.00 27 1008.9
20260506170521 69 274 3.0 7.0 0.00 0.00 0.00 28 1009.0
20260506170046 69 295 1.0 7.0 0.00 0.00 0.00 30 1009.0
20260506165532 68 301 4.0 6.0 0.00 0.00 0.00 29 1008.9
20260506165027 68 281 1.0 5.0 0.00 0.00 0.00 29 1009.0
20260506164541 68 276 2.0 4.0 0.00 0.00 0.00 29 1009.1
20260506164023 69 315 2.0 5.0 0.00 0.00 0.00 28 1009.1
20260506163525 69 307 4.0 8.0 0.00 0.00 0.00 28 1009.1
20260506163042 70 283 7.0 8.0 0.00 0.00 0.00 27 1009.1
20260506162549 71 253 4.0 6.0 0.00 0.00 0.00 26 1009.1
20260506162041 72 259 0.0 5.0 0.00 0.00 0.00 25 1009.1
20260506161603 72 222 0.0 5.0 0.00 0.00 0.00 25 1009.1
20260506161021 72 125 0.0 1.0 0.00 0.00 0.00 26 1009.2
20260506160547 71 133 0.0 0.0 0.00 0.00 0.00 26 1009.2
20260506160106 71 328 0.0 2.0 0.00 0.00 0.00 27 1009.3
20260506155546 70 256 0.0 4.0 0.00 0.00 0.00 27 1009.3
20260506155050 69 218 1.0 6.0 0.00 0.00 0.00 28 1009.3
20260506154605 68 155 5.0 6.0 0.00 0.00 0.00 28 1009.4
20260506154041 68 98 0.0 4.0 0.00 0.00 0.00 27 1009.4
20260506153529 69 114 1.0 6.0 0.00 0.00 0.00 27 1009.4
20260506153028 68 83 2.0 9.0 0.00 0.00 0.00 28 1009.5
20260506152542 69 96 6.0 9.0 0.00 0.00 0.00 28 1009.5
20260506152037 69 112 1.0 5.0 0.00 0.00 0.00 28 1009.5
20260506151539 69 81 4.0 5.0 0.00 0.00 0.00 28 1009.5
20260506151023 69 50 1.0 6.0 0.00 0.00 0.00 29 1009.5
20260506150532 69 95 4.0 6.0 0.00 0.00 0.00 29 1009.6
20260506150105 69 53 1.0 6.0 0.00 0.00 0.00 29 1009.6
20260506145544 69 57 2.0 4.0 0.00 0.00 0.00 30 1009.7
20260506145048 68 101 1.0 6.0 0.00 0.00 0.00 30 1009.8
20260506144535 68 63 1.0 6.0 0.00 0.00 0.00 30 1009.9
20260506144044 68 39 3.0 5.0 0.00 0.00 0.00 30 1010.0
20260506143531 68 31 1.0 5.0 0.00 0.00 0.00 30 1010.0
20260506143024 68 349 2.0 5.0 0.00 0.00 0.00 30 1010.1
20260506142529 68 315 1.0 5.0 0.00 0.00 0.00 32 1010.2
20260506142033 67 319 0.0 2.0 0.00 0.00 0.00 31 1010.2
20260506141544 67 1 0.0 6.0 0.00 0.00 0.00 32 1010.4
20260506141043 67 56 0.0 6.0 0.00 0.00 0.00 32 1010.4
20260506140521 67 61 2.0 6.0 0.00 0.00 0.00 32 1010.5
20260506135533 67 33 0.0 4.0 0.00 0.00 0.00 31 1010.5
20260506135021 67 72 0.0 5.0 0.00 0.00 0.00 31 1010.6
20260506134525 68 315 0.0 7.0 0.00 0.00 0.00 31 1010.6
20260506134036 69 292 2.0 7.0 0.00 0.00 0.00 30 1010.7
20260506133527 69 323 0.0 6.0 0.00 0.00 0.00 30 1010.7
20260506133038 69 321 1.0 7.0 0.00 0.00 0.00 30 1010.8
20260506132544 69 319 2.0 7.0 0.00 0.00 0.00 31 1010.7
20260506132022 69 9 4.0 6.0 0.00 0.00 0.00 30 1010.8
20260506131522 69 331 2.0 5.0 0.00 0.00 0.00 31 1010.8
20260506131030 67 239 0.0 6.0 0.00 0.00 0.00 32 1010.9
20260506130530 66 113 4.0 10.0 0.00 0.00 0.00 33 1010.9
20260506130100 67 79 6.0 10.0 0.00 0.00 0.00 32 1011.0
20260506125609 67 85 0.0 6.0 0.00 0.00 0.00 33 1011.0
20260506125046 68 288 3.0 6.0 0.00 0.00 0.00 31 1011.0
20260506124534 68 307 1.0 6.0 0.00 0.00 0.00 32 1011.1
20260506124026 67 351 0.0 7.0 0.00 0.00 0.00 33 1011.2
20260506123537 67 249 5.0 7.0 0.00 0.00 0.00 34 1011.2
20260506123044 67 316 4.0 7.0 0.00 0.00 0.00 32 1011.2
20260506122547 67 170 1.0 8.0 0.00 0.00 0.00 34 1011.3
20260506122024 67 90 4.0 10.0 0.00 0.00 0.00 33 1011.4
20260506121557 68 58 6.0 10.0 0.00 0.00 0.00 32 1011.5
20260506121033 68 16 4.0 8.0 0.00 0.00 0.00 32 1011.5
20260506120535 69 181 0.0 6.0 0.00 0.00 0.00 32 1011.6
20260506120108 69 141 1.0 7.0 0.00 0.00 0.00 32 1011.6
20260506115528 68 248 2.0 6.0 0.00 0.00 0.00 33 1011.7
20260506115031 67 56 0.0 7.0 0.00 0.00 0.00 33 1011.8
20260506114527 68 158 3.0 7.0 0.00 0.00 0.00 32 1011.9